Location: Bord�res
(43.2000°N, 0.2167°W)
Time: 14:46:51
(UTC+00:00)

Lacrosse 4 Rocket - Pass Details

Date: 03 March 2021
Orbit: 537 x 620 km, 68.0° (Epoch: 20 April)

Event Time Altitude Azimuth Distance (km) Brightness Sun altitude
Rises 20:46:53 0° 231° (SW) 2,823 5.3 -31.9°
Reaches altitude 10° 20:49:15 10° 240° (WSW) 1,938 4.5 -32.3°
Enters shadow 20:50:42 19° 252° (WSW) 1,455 3.9 -32.6°
